Tracking 25963 objects as of 12-Aug-2022
HD Live streaming from Space Station
objects crossing your sky now

STARLINK-4093

Track STARLINK-4093 now!
10-day predictions
STARLINK-4093 is classified as:


NORAD ID: 53157
Int'l Code: 2022-083AB
Perigee: 355.1 km
Apogee: 358.8 km
Inclination: 53.2 °
Period: 91.5 minutes
Semi major axis: 6727 km
RCS: Unknown
Launch date: July 17, 2022
Source: United States (US)
Launch site: AIR FORCE EASTERN TEST RANGE (AFETR)
aabbcc
Your satellite tracking list
Your tracking list is empty




NASA's NSSDC Master Catalog

Two Line Element Set (TLE):
1 53157U 22083AB  22224.58334491  .00085633  00000-0  60887-3 0  9992
2 53157  53.2167 278.1939 0002744  14.4819 146.2256 15.73177666  4740
Source of the keplerian elements: AFSPC